Russellville, AR

1:04 AM CDT on October 21, 2019 (GMT -0500)
Russellville Regional

Weather History for KRUE - August, 2019

Change the Weather History Date:

Monday, August 19, 2019

  Actual Average (WUND) Record (WUND)
Temperature  
Mean Temperature 84 °F -  
Max Temperature 98 °F - - (-1)
Min Temperature 71 °F - - (-1)
Cooling Degree Days 20    
Growing Degree Days 34 (Base 50)    
Moisture  
Dew Point 72 °F    
Average Humidity 70    
Maximum Humidity 93    
Minimum Humidity 43    
Precipitation  
Precipitation 0.00 in - - ()
Sea Level Pressure  
Sea Level Pressure 29.96 in    
Wind  
Wind Speed 1 mph (ESE)    
Max Wind Speed 7 mph    
Max Gust Speed -    
Visibility 10 miles    
Events      
Averages and records for this station are not official NWS values.
T = Trace of Precipitation, MM = Missing Value Source: NWS Daily Summary

Daily Weather History Graph

Daily Weather History Graph

Search for Another Location

Airport or City:

Astronomy

Aug. 19, 2019 Rise Set
Actual Time 6:34 AM CDT 7:56 PM CDT
Civil Twilight 6:08 AM CDT 8:23 PM CDT
Nautical Twilight 5:36 AM CDT 8:54 PM CDT
Astronomical Twilight 5:02 AM CDT 9:28 PM CDT
Moon 10:26 PM CDT (8/19) 10:09 AM CDT (8/19)
Length of Visible Light 14h 14m
Length of Day
13h 21m
Waning Gibbous, 85% of the Moon is Illuminated
Aug 19
Waning Gibbous
Aug 23
Last Quarter
Aug 30
New
Sep 5
First Quarter
Sep 13
Full

Hourly Weather History & Observations

Time (CDT) Temp. Heat Index Dew Point Humidity Pressure Visibility Wind Dir Wind Speed Gust Speed Precip Events Conditions
12:53 AM 73.9 °F - 71.1 °F 91% 29.94 in 10.0 mi Calm Calm - N/A   Clear
1:53 AM 73.9 °F - 70.0 °F 87% 29.94 in 10.0 mi Calm Calm - N/A   Clear
2:53 AM 72.0 °F - 70.0 °F 93% 29.92 in 10.0 mi Calm Calm - N/A   Clear
3:53 AM 72.0 °F - 70.0 °F 93% 29.93 in 10.0 mi Calm Calm - N/A   Clear
4:53 AM 72.0 °F - 70.0 °F 93% 29.94 in 9.0 mi Calm Calm - N/A   Clear
6:53 AM 71.1 °F - 69.1 °F 93% 29.97 in 6.0 mi Calm Calm - N/A   Clear
7:53 AM 73.9 °F - 72.0 °F 93% 29.99 in 10.0 mi Calm Calm - N/A   Clear
8:53 AM 79.0 °F - 72.0 °F 79% 30.00 in 10.0 mi ESE 4.6 mph - N/A   Clear
9:53 AM 82.9 °F 88.8 °F 73.0 °F 72% 30.00 in 10.0 mi South 3.5 mph - N/A   Clear
10:53 AM 86.0 °F 93.8 °F 73.9 °F 67% 30.00 in 9.0 mi SSW 3.5 mph - N/A   Clear
11:53 AM 91.0 °F 101.6 °F 75.0 °F 59% 29.99 in 10.0 mi ENE 3.5 mph - N/A   Clear
12:53 PM 93.0 °F 103.2 °F 73.9 °F 54% 29.98 in 10.0 mi Variable 3.5 mph - N/A   Clear
1:53 PM 96.1 °F 105.6 °F 73.0 °F 47% 29.96 in 10.0 mi Calm Calm - N/A   Clear
2:53 PM 97.0 °F 105.5 °F 72.0 °F 44% 29.95 in 10.0 mi Variable 3.5 mph - N/A   Clear
3:53 PM 98.1 °F 107.2 °F 72.0 °F 43% 29.93 in 10.0 mi Variable 4.6 mph - N/A   Clear
4:53 PM 97.0 °F 105.5 °F 72.0 °F 44% 29.92 in 10.0 mi ESE 6.9 mph - N/A   Clear
6:53 PM 93.0 °F 100.7 °F 72.0 °F 50% 29.92 in 10.0 mi ESE 4.6 mph - N/A   Clear
7:53 PM 88.0 °F 93.8 °F 71.1 °F 57% 29.92 in 10.0 mi East 3.5 mph - N/A   Clear
8:53 PM 84.0 °F 90.2 °F 73.0 °F 69% 29.94 in 10.0 mi Calm Calm - N/A   Clear
9:53 PM 84.0 °F 91.2 °F 73.9 °F 72% 29.98 in 10.0 mi Calm Calm - N/A   Clear
10:53 PM 82.9 °F 89.4 °F 73.9 °F 74% 30.00 in 10.0 mi Calm Calm - N/A   Clear
11:53 PM 82.9 °F 89.4 °F 73.9 °F 74% 30.00 in 10.0 mi Calm Calm - N/A   Clear